• In Hungary
  • List of Countries
  • For 7 days
  • Water Temperature
  • Satellite Maps
  • Weather Map
  • News
  • Weather Widgets
  • user-avatar
    Login

    Hourly Weather Kurmoyarskiy

    Today, 28 May, Monday

    Time Temperature Precipitation Wind Pressure Humidity
    00:00 +12°C° 0 mm 4 mps 756 mmHg 56%
    01:00 +11°C° 0 mm 4 mps 756 mmHg 62%
    02:00 +11°C° 0 mm 4 mps 756 mmHg 67%
    03:00 +10°C° 0 mm 4 mps 756 mmHg 73%
    04:00 +11°C° 0 mm 4 mps 756 mmHg 74%
    05:00 +11°C° 0 mm 4 mps 756 mmHg 76%
    06:00 +11°C° 0 mm 4 mps 756 mmHg 78%
    07:00 +13°C° 0 mm 4 mps 756 mmHg 71%
    08:00 +15°C° 0 mm 4 mps 756 mmHg 65%
    09:00 +18°C° 0 mm 4 mps 756 mmHg 58%
    10:00 +19°C° 0 mm 4 mps 756 mmHg 53%
    11:00 +21°C° 0 mm 4 mps 756 mmHg 47%
    12:00 +22°C° 0 mm 4 mps 755 mmHg 42%
    13:00 +23°C° 0 mm 4 mps 755 mmHg 40%
    14:00 +23°C° 0 mm 4 mps 755 mmHg 39%
    15:00 +25°C° 0 mm 4 mps 755 mmHg 37%
    16:00 +23°C° 0 mm 4 mps 755 mmHg 41%
    17:00 +23°C° 0 mm 4 mps 755 mmHg 44%
    18:00 +22°C° 0 mm 3 mps 754 mmHg 48%
    19:00 +20°C° 0 mm 3 mps 755 mmHg 49%
    20:00 +18°C° 0 mm 3 mps 755 mmHg 49%
    21:00 +16°C° 0 mm 3 mps 755 mmHg 50%
    22:00 +16°C° 0 mm 3 mps 755 mmHg 52%
    23:00 +16°C° 0 mm 3 mps 755 mmHg 54%

    Tomorrow, 29 May, Tuesday

    Time Temperature Precipitation Wind Pressure Humidity
    00:00 +14°C° 0 mm 3 mps 756 mmHg 56%
    01:00 +14°C° 0 mm 4 mps 756 mmHg 62%
    02:00 +14°C° 0 mm 5 mps 756 mmHg 67%
    03:00 +14°C° 0 mm 6 mps 756 mmHg 73%
    04:00 +14°C° 0 mm 6 mps 756 mmHg 71%
    05:00 +14°C° 0 mm 6 mps 757 mmHg 68%
    06:00 +14°C° 0 mm 7 mps 757 mmHg 66%
    07:00 +15°C° 0 mm 7 mps 757 mmHg 62%
    08:00 +16°C° 0 mm 8 mps 757 mmHg 57%
    09:00 +18°C° 0 mm 8 mps 758 mmHg 53%
    10:00 +18°C° 0 mm 8 mps 758 mmHg 50%
    11:00 +20°C° 0 mm 8 mps 758 mmHg 47%
    12:00 +21°C° 0 mm 8 mps 758 mmHg 44%
    13:00 +21°C° 0 mm 8 mps 757 mmHg 42%
    14:00 +21°C° 0 mm 8 mps 757 mmHg 40%
    15:00 +21°C° 0 mm 8 mps 757 mmHg 39%
    16:00 +20°C° 0 mm 7 mps 757 mmHg 41%
    17:00 +20°C° 0 mm 6 mps 756 mmHg 42%
    18:00 +19°C° 0 mm 5 mps 756 mmHg 44%
    19:00 +16°C° 0 mm 5 mps 756 mmHg 45%
    20:00 +15°C° 0 mm 5 mps 756 mmHg 45%
    21:00 +13°C° 0 mm 5 mps 757 mmHg 46%
    22:00 +13°C° 0 mm 5 mps 756 mmHg 45%
    23:00 +12°C° 0 mm 5 mps 756 mmHg 44%

    Day after tomorrow, 30 May, Wednesday

    Time Temperature Precipitation Wind Pressure Humidity
    00:00 +12°C° 0 mm 5 mps 756 mmHg 43%
    01:00 +10°C° 0 mm 5 mps 756 mmHg 44%
    02:00 +10°C° 0 mm 5 mps 756 mmHg 44%
    03:00 +9°C° 0 mm 5 mps 756 mmHg 44%
    04:00 +9°C° 0 mm 5 mps 755 mmHg 47%
    05:00 +11°C° 0 mm 4 mps 755 mmHg 50%
    06:00 +11°C° 0 mm 4 mps 755 mmHg 53%
    07:00 +13°C° 0 mm 5 mps 755 mmHg 48%
    08:00 +15°C° 0 mm 5 mps 755 mmHg 44%
    09:00 +17°C° 0 mm 6 mps 755 mmHg 40%
    10:00 +19°C° 0 mm 6 mps 755 mmHg 38%
    11:00 +21°C° 0 mm 6 mps 754 mmHg 36%
    12:00 +22°C° 0 mm 6 mps 754 mmHg 35%
    13:00 +22°C° 0 mm 6 mps 753 mmHg 34%
    14:00 +23°C° 0 mm 5 mps 753 mmHg 34%
    15:00 +23°C° 0 mm 5 mps 753 mmHg 33%
    16:00 +23°C° 0 mm 4 mps 752 mmHg 37%
    17:00 +23°C° 0 mm 4 mps 752 mmHg 41%
    18:00 +24°C° 0 mm 3 mps 751 mmHg 45%
    19:00 +20°C° 0 mm 3 mps 751 mmHg 46%
    20:00 +18°C° 0 mm 3 mps 751 mmHg 47%
    21:00 +16°C° 0 mm 3 mps 751 mmHg 48%
    22:00 +16°C° 0 mm 3 mps 751 mmHg 50%
    23:00 +14°C° 0 mm 3 mps 750 mmHg 52%

    31 May, Thursday

    Time Temperature Precipitation Wind Pressure Humidity
    00:00 +13°C° 0 mm 3 mps 750 mmHg 53%
    01:00 +13°C° 0 mm 3 mps 750 mmHg 58%
    02:00 +12°C° 0 mm 3 mps 750 mmHg 63%
    03:00 +12°C° 0 mm 3 mps 749 mmHg 67%
    04:00 +12°C° 0 mm 3 mps 749 mmHg 69%
    05:00 +13°C° 0 mm 3 mps 749 mmHg 71%
    06:00 +13°C° 0 mm 3 mps 748 mmHg 74%
    07:00 +16°C° 0 mm 3 mps 748 mmHg 68%
    08:00 +19°C° 0 mm 4 mps 748 mmHg 61%
    09:00 +21°C° 0 mm 4 mps 748 mmHg 55%
    10:00 +22°C° 0 mm 4 mps 748 mmHg 52%
    11:00 +23°C° 0 mm 4 mps 747 mmHg 48%
    12:00 +25°C° 0 mm 4 mps 747 mmHg 45%
    13:00 +26°C° 0 mm 4 mps 746 mmHg 43%
    14:00 +27°C° 0 mm 3 mps 746 mmHg 42%
    15:00 +27°C° 0 mm 3 mps 745 mmHg 41%
    16:00 +27°C° 0 mm 3 mps 745 mmHg 43%
    17:00 +27°C° 0 mm 2 mps 745 mmHg 45%
    18:00 +27°C° 0 mm 2 mps 745 mmHg 47%
    19:00 +25°C° 0 mm 2 mps 745 mmHg 49%
    20:00 +23°C° 0 mm 2 mps 745 mmHg 52%
    21:00 +20°C° 0 mm 2 mps 745 mmHg 55%
    22:00 +20°C° 0 mm 2 mps 744 mmHg 55%
    23:00 +19°C° 0 mm 3 mps 744 mmHg 56%

    1 June, Friday

    Time Temperature Precipitation Wind Pressure Humidity
    00:00 +18°C° 0 mm 3 mps 744 mmHg 57%
    01:00 +18°C° 0 mm 2 mps 744 mmHg 55%
    02:00 +18°C° 0 mm 2 mps 744 mmHg 53%
    03:00 +18°C° 0 mm 2 mps 744 mmHg 51%
    04:00 +18°C° 0 mm 2 mps 744 mmHg 53%
    05:00 +19°C° 0 mm 2 mps 744 mmHg 54%
    06:00 +20°C° 0 mm 1 mps 744 mmHg 56%
    07:00 +20°C° 0 mm 2 mps 744 mmHg 54%
    08:00 +21°C° 0 mm 2 mps 744 mmHg 52%
    09:00 +23°C° 0 mm 2 mps 745 mmHg 50%
    10:00 +24°C° 0 mm 2 mps 744 mmHg 48%
    11:00 +25°C° 0 mm 2 mps 744 mmHg 46%
    12:00 +26°C° 0 mm 2 mps 744 mmHg 44%
    13:00 +26°C° 0.1 mm 2 mps 744 mmHg 47%
    14:00 +26°C° 0.1 mm 2 mps 744 mmHg 50%
    15:00 +26°C° 0.1 mm 2 mps 744 mmHg 54%
    16:00 +24°C° 0.6 mm 2 mps 744 mmHg 62%
    17:00 +23°C° 0.6 mm 2 mps 744 mmHg 71%
    18:00 +20°C° 0.6 mm 2 mps 744 mmHg 80%
    19:00 +19°C° 0.7 mm 2 mps 744 mmHg 83%
    20:00 +19°C° 0.7 mm 2 mps 744 mmHg 86%
    21:00 +18°C° 0.7 mm 2 mps 744 mmHg 89%
    22:00 +18°C° 1 mm 2 mps 744 mmHg 90%
    23:00 +18°C° 1 mm 3 mps 744 mmHg 91%

    2 June, Saturday

    Time Temperature Precipitation Wind Pressure Humidity
    00:00 +18°C° 1 mm 3 mps 744 mmHg 92%
    01:00 +18°C° 0.4 mm 3 mps 744 mmHg 92%
    02:00 +18°C° 0.4 mm 3 mps 744 mmHg 93%
    03:00 +18°C° 0.4 mm 3 mps 744 mmHg 94%
    04:00 +18°C° 0.1 mm 3 mps 745 mmHg 94%
    05:00 +18°C° 0.1 mm 3 mps 745 mmHg 93%
    06:00 +18°C° 0.1 mm 3 mps 745 mmHg 93%
    07:00 +18°C° 0.1 mm 4 mps 746 mmHg 90%
    08:00 +18°C° 0.1 mm 4 mps 746 mmHg 88%
    09:00 +18°C° 0.1 mm 4 mps 746 mmHg 86%
    10:00 +18°C° 0.1 mm 4 mps 746 mmHg 83%
    11:00 +19°C° 0.1 mm 4 mps 746 mmHg 80%
    12:00 +19°C° 0.1 mm 5 mps 747 mmHg 78%
    13:00 +19°C° 0 mm 5 mps 747 mmHg 76%
    14:00 +20°C° 0 mm 5 mps 747 mmHg 74%
    15:00 +20°C° 0 mm 5 mps 747 mmHg 72%
    16:00 +19°C° 0 mm 5 mps 747 mmHg 72%
    17:00 +19°C° 0 mm 5 mps 747 mmHg 73%
    18:00 +17°C° 0 mm 5 mps 748 mmHg 74%
    19:00 +16°C° 0 mm 5 mps 748 mmHg 75%
    20:00 +15°C° 0 mm 5 mps 748 mmHg 77%
    21:00 +14°C° 0 mm 4 mps 749 mmHg 79%
    22:00 +13°C° 0 mm 4 mps 749 mmHg 79%
    23:00 +13°C° 0 mm 4 mps 749 mmHg 80%
    Show more